Waarnemingen

Advertentie
Mijn weer
Brüssel, België (6451): temperatuur & dauwpunt: 09.07.2020 14:00:00 - 15.07.2020 14:00:00 (CEST)Brüssel, België (6451): windsnelheid & windstoten: 09.07.2020 14:00:00 - 15.07.2020 14:00:00 (CEST)Brüssel, België (6451): windrichting: 09.07.2020 14:00:00 - 15.07.2020 14:00:00 (CEST)Brüssel, België (6451): luchtdruk: 09.07.2020 14:00:00 - 15.07.2020 14:00:00 (CEST)Brüssel, België (6451): zicht: 09.07.2020 14:00:00 - 15.07.2020 14:00:00 (CEST)
Datum & Tijd tt [°C] td [°C] ff [km/u] ff [kn] fx [km/u] fx [kn] dd ppp [hPa] vv [km]
15.07.2020 14:00:00 19,0 10,0 4 2 - - - - 10
15.07.2020 13:00:00 18,6 9,7 8 4 14 8 WZW 1015,9 10
15.07.2020 12:00:00 18,0 10,0 4 2 11 6 - 1015,9 10
15.07.2020 11:00:00 17,5 10,0 4 2 - - - 1015,8 10
15.07.2020 10:00:00 16,3 11,4 4 2 7 4 - 1015,4 10
15.07.2020 09:00:00 14,9 11,0 4 2 7 4 - 1015,4 10
15.07.2020 08:00:00 14,5 11,5 5 3 - - NNO 1015,2 10
15.07.2020 07:00:00 14,5 12,9 2 1 4 2 N 1014,9 10
15.07.2020 06:00:00 13,2 12,5 2 1 4 2 WZW 1014,7 10
15.07.2020 05:00:00 13,4 12,3 5 3 - - W 1014,8 10
15.07.2020 04:00:00 13,5 11,9 4 2 4 2 W 1014,9 10
15.07.2020 03:00:00 13,7 12,0 0 0 7 4 N 1015,2 10
15.07.2020 02:00:00 13,8 12,9 5 3 - - N 1015,6 10
15.07.2020 01:00:00 14,4 13,3 8 4 14 8 NNW 1015,3 10
15.07.2020 00:00:00 15,2 13,4 9 5 14 8 NW 1015,2 10
14.07.2020 23:00:00 15,0 13,1 5 3 - - WNW 1015,2 10
14.07.2020 22:00:00 15,4 13,5 8 4 14 8 NNW 1015,1 10
14.07.2020 21:00:00 15,5 14,3 9 5 14 8 NNW 1015,0 10
14.07.2020 20:00:00 16,3 14,5 11 6 - - NNW 1014,9 10
14.07.2020 19:00:00 16,4 14,6 15 8 22 12 NNW 1014,7 10
14.07.2020 18:00:00 16,8 15,3 15 8 36 19 NW 1014,6 10
14.07.2020 17:00:00 18,0 16,6 11 6 - - ZW 1014,4 10
14.07.2020 16:00:00 16,8 15,9 15 8 22 12 WZW 1014,9 4,0
14.07.2020 15:00:00 16,4 15,6 9 5 14 8 WZW 1015,3 4,0
14.07.2020 14:00:00 16,5 14,7 8 4 - - W 1015,6 7
14.07.2020 13:00:00 17,4 14,6 8 4 14 8 ZW 1015,9 10
14.07.2020 12:00:00 15,9 13,7 9 5 18 10 ZZW 1016,4 10
14.07.2020 11:00:00 15,6 12,4 13 7 - - ZW 1016,6 9
14.07.2020 10:00:00 17,4 11,3 8 4 18 10 ZW 1016,4 10
14.07.2020 09:00:00 16,2 11,0 13 7 18 10 WZW 1016,9 10
14.07.2020 08:00:00 15,8 9,4 11 6 - - WZW 1016,8 10
14.07.2020 07:00:00 14,1 9,6 9 5 11 6 ZZW 1017,1 10
14.07.2020 06:00:00 14,2 10,5 8 4 11 6 Z 1017,1 10
14.07.2020 05:00:00 14,1 11,1 5 3 - - ZZW 1017,5 10
14.07.2020 04:00:00 13,4 10,5 8 4 11 6 WZW 1018,1 10
14.07.2020 03:00:00 14,2 10,3 4 2 11 6 W 1018,8 10
14.07.2020 02:00:00 13,6 9,7 11 6 - - ZZW 1019,1 35
14.07.2020 01:00:00 13,7 10,0 5 3 7 4 Z 1019,3 10
14.07.2020 00:00:00 14,5 10,4 5 3 4 2 ZZO 1019,6 10
13.07.2020 23:00:00 17,6 7,5 2 1 - - N 1020,1 10
13.07.2020 22:00:00 18,4 7,9 8 4 18 10 N 1020,2 10
13.07.2020 21:00:00 20,9 7,0 13 7 25 14 N 1020,3 10
13.07.2020 20:00:00 22,5 8,1 13 7 - - NNW 1020,5 10
13.07.2020 19:00:00 22,6 8,5 15 8 25 14 NW 1020,7 10
13.07.2020 18:00:00 23,8 8,1 9 5 25 14 NW 1021,1 10
13.07.2020 17:00:00 23,9 8,4 11 6 - - WNW 1021,6 10
13.07.2020 16:00:00 24,0 8,5 4 2 18 10 - 1022,2 10
13.07.2020 15:00:00 23,0 8,4 8 4 18 10 N 1022,8 10
13.07.2020 14:00:00 22,5 9,2 2 1 - - - 1023,5 10
13.07.2020 13:00:00 22,6 9,1 4 2 22 12 - 1024,1 10
13.07.2020 12:00:00 20,9 7,7 5 3 22 12 NNO 1024,6 10
13.07.2020 11:00:00 19,7 8,6 7 4 - - NO 1024,9 30
13.07.2020 10:00:00 17,6 10,1 8 4 11 6 NO 1025,2 10
13.07.2020 09:00:00 15,3 10,4 4 2 7 4 - 1025,4 10
13.07.2020 08:00:00 13,8 10,9 5 3 - - O 1025,5 10
13.07.2020 07:00:00 10,5 9,6 0 0 4 2 N 1025,4 10
13.07.2020 06:00:00 9,7 8,3 2 1 4 2 - 1025,4 10
13.07.2020 05:00:00 11,0 8,7 0 0 - - N 1025,6 10
13.07.2020 04:00:00 10,9 8,8 2 1 4 2 N 1026,2 10
13.07.2020 03:00:00 11,7 8,8 4 2 4 2 N 1026,6 10
13.07.2020 02:00:00 12,7 9,2 2 1 - - NW 1026,6 10
13.07.2020 01:00:00 14,2 9,3 2 1 11 6 O 1026,6 10
13.07.2020 00:00:00 15,0 9,3 4 2 14 8 ONO 1026,7 10
12.07.2020 23:00:00 14,7 9,9 5 3 - - NNO 1026,9 10
12.07.2020 22:00:00 15,8 10,4 4 2 18 10 N 1026,7 10
12.07.2020 21:00:00 18,6 9,2 11 6 22 12 NO 1026,6 10
12.07.2020 20:00:00 20,3 8,0 13 7 - - NO 1026,8 10
12.07.2020 19:00:00 20,7 7,4 13 7 25 14 NO 1027,2 10
12.07.2020 18:00:00 21,1 8,5 5 3 25 14 NNO 1027,5 10
12.07.2020 17:00:00 20,6 6,9 9 5 - - NO 1027,9 10
12.07.2020 16:00:00 20,4 7,3 8 4 25 14 - 1028,2 10
12.07.2020 15:00:00 19,8 7,3 11 6 25 14 NO 1028,5 10
12.07.2020 14:00:00 19,7 8,0 9 5 - - NO 1028,8 10
12.07.2020 13:00:00 18,1 7,4 9 5 18 10 NNO 1029,3 10
12.07.2020 12:00:00 17,5 8,8 9 5 14 8 N 1029,3 10
12.07.2020 11:00:00 17,0 9,3 8 4 - - NO 1029,4 10
12.07.2020 10:00:00 15,6 10,7 8 4 14 8 ONO 1029,5 10
12.07.2020 09:00:00 13,7 11,1 5 3 11 6 NO 1029,3 10
12.07.2020 08:00:00 11,8 10,5 4 2 - - - 1028,8 10
12.07.2020 07:00:00 10,2 9,6 0 0 4 2 N 1028,3 10
12.07.2020 06:00:00 8,4 7,9 2 1 4 2 - 1028,1 10
12.07.2020 05:00:00 10,0 9,0 2 1 - - NNW 1027,9 10
12.07.2020 04:00:00 10,1 9,3 2 1 4 2 - 1027,9 10
12.07.2020 03:00:00 10,5 9,4 2 1 7 4 NNW 1028,0 10
12.07.2020 02:00:00 11,1 9,7 2 1 - - - 1028,0 10
12.07.2020 01:00:00 11,9 10,0 8 4 11 6 NW 1028,0 10
12.07.2020 00:00:00 12,6 10,0 5 3 14 8 NNW 1027,9 10
11.07.2020 23:00:00 13,8 9,8 9 5 - - NW 1027,6 10
11.07.2020 22:00:00 14,6 9,2 8 4 18 10 NNW 1027,1 10
11.07.2020 21:00:00 16,8 8,2 15 8 25 14 NNW 1026,8 10
11.07.2020 20:00:00 17,9 8,3 16 9 - - N 1026,5 10
11.07.2020 19:00:00 17,8 9,3 16 9 29 16 N 1026,3 10
11.07.2020 18:00:00 18,6 9,5 18 10 36 19 N 1026,2 10
11.07.2020 17:00:00 18,1 9,9 15 8 - - N 1025,9 10
11.07.2020 16:00:00 18,5 10,0 16 9 29 16 NNW 1025,7 10
11.07.2020 15:00:00 18,8 8,6 13 7 29 16 NW 1025,6 10
11.07.2020 14:00:00 19,5 8,7 11 6 - - WNW 1025,4 10
11.07.2020 13:00:00 18,5 8,8 5 3 22 12 W 1025,2 10
11.07.2020 12:00:00 16,7 9,2 11 6 18 10 W 1025,4 10
11.07.2020 11:00:00 17,3 9,7 9 5 - - W 1025,0 10
11.07.2020 10:00:00 16,2 10,4 4 2 11 6 - 1024,8 10
11.07.2020 09:00:00 14,8 11,0 8 4 11 6 WZW 1024,6 10
11.07.2020 08:00:00 13,1 10,9 5 3 - - ZW 1024,0 10
11.07.2020 07:00:00 10,1 9,2 8 4 11 6 ZZW 1023,6 10
11.07.2020 06:00:00 8,9 8,1 8 4 7 4 ZZW 1023,3 10
11.07.2020 05:00:00 9,0 8,2 5 3 - - Z 1022,9 10
11.07.2020 04:00:00 9,7 8,9 4 2 4 2 Z 1022,6 10
11.07.2020 03:00:00 11,2 9,2 2 1 7 4 NW 1022,5 10
11.07.2020 02:00:00 12,6 9,7 5 3 - - NW 1022,3 10
11.07.2020 01:00:00 12,3 9,5 8 4 11 6 NW 1021,8 10
11.07.2020 00:00:00 11,8 8,7 8 4 11 6 NW 1021,3 10
10.07.2020 23:00:00 13,0 8,8 9 5 - - NW 1020,8 10
10.07.2020 22:00:00 14,3 8,4 9 5 22 12 NW 1020,1 10
10.07.2020 21:00:00 16,4 7,4 15 8 29 16 NW 1019,6 10
10.07.2020 20:00:00 17,2 8,0 21 11 - - NNW 1019,2 10
10.07.2020 19:00:00 17,8 8,3 21 11 29 16 NW 1018,6 10
10.07.2020 18:00:00 17,7 8,7 14 8 29 16 NNW 1018,2 35
10.07.2020 17:00:00 17,0 10,4 21 11 - - NNW 1017,9 10
10.07.2020 16:00:00 17,4 11,8 21 11 40 21 NNW 1017,4 10
10.07.2020 15:00:00 17,6 11,8 22 12 40 21 NNW 1016,8 25
10.07.2020 14:00:00 16,5 12,3 29 16 - - NNW 1015,9 10
10.07.2020 13:00:00 18,7 13,1 21 11 32 18 WNW 1014,9 10
10.07.2020 12:00:00 17,4 13,7 21 11 32 18 NW 1014,2 10
10.07.2020 11:00:00 16,0 12,8 21 11 - - NW 1013,1 10
10.07.2020 10:00:00 16,6 14,1 18 10 36 19 NW 1012,0 10
10.07.2020 09:00:00 16,4 14,4 24 13 36 19 W 1011,0 10
10.07.2020 08:00:00 15,9 14,8 18 10 - - WZW 1010,3 10
10.07.2020 07:00:00 16,2 14,1 18 10 29 16 WZW 1010,0 10
10.07.2020 06:00:00 16,5 13,8 16 9 32 18 WZW 1009,7 10
10.07.2020 05:00:00 16,7 13,9 16 9 - - WZW 1009,9 10
10.07.2020 04:00:00 17,0 13,9 16 9 29 16 WZW 1010,4 10
10.07.2020 03:00:00 17,3 13,9 15 8 29 16 ZW 1010,5 10
10.07.2020 02:00:00 18,0 14,0 18 10 - - WZW 1011,1 10
10.07.2020 01:00:00 18,2 14,3 13 7 29 16 ZW 1011,5 10
10.07.2020 00:00:00 18,8 14,6 13 7 25 14 W 1011,8 10
09.07.2020 23:00:00 16,9 15,0 4 2 - - - 1011,8 10
09.07.2020 22:00:00 19,5 15,0 9 5 18 10 NW 1012,0 10
09.07.2020 21:00:00 21,2 15,1 11 6 22 12 NW 1012,0 10
09.07.2020 20:00:00 23,1 14,0 15 8 - - W 1012,0 10
09.07.2020 19:00:00 23,2 13,9 22 12 32 18 W 1012,4 10
09.07.2020 18:00:00 22,9 15,0 16 9 29 16 W 1012,9 10
09.07.2020 17:00:00 21,9 14,8 18 10 - - WZW 1013,2 10
09.07.2020 16:00:00 21,1 14,3 22 12 40 21 W 1014,0 10
09.07.2020 15:00:00 20,6 14,7 21 11 40 21 WZW 1014,3 10
09.07.2020 14:00:00 21,0 14,4 24 13 - - WZW 1014,2 10

tt = temperatuur
td = dauwpunt
ff = windsnelheid
fx = windstoten
dd = windrichting
ppp = luchtdruk
vv = zicht

Weerstations in de omgeving